MST,Max TemperatureF,Mean TemperatureF,Min TemperatureF,Max Dew PointF,MeanDew PointF,Min DewpointF,Max Humidity, Mean Humidity, Min Humidity, Max Sea Level PressureIn, Mean Sea Level PressureIn, Min Sea Level PressureIn, Max VisibilityMiles, Mean VisibilityMiles, Min VisibilityMiles, Max Wind SpeedMPH, Mean Wind SpeedMPH, Max Gust SpeedMPH,PrecipitationIn, CloudCover, Events, WindDirDegrees
2013-12-1,62,52,42,40,37,33,77,60,34,30.29,30.22,30.18,10,10,10,9,4,,0.00,2,,325
2013-12-2,63,48,34,33,25,14,82,44,18,30.18,30.05,29.92,10,10,10,17,7,25,0.00,0,,284
2013-12-3,68,56,45,37,19,13,61,27,12,29.93,29.85,29.78,10,10,10,23,13,29,0.00,0,,253
2013-12-4,68,57,46,42,35,27,75,48,23,29.90,29.82,29.75,10,10,7,32,13,43,0.00,1,,233
2013-12-5,56,46,34,40,33,29,81,60,42,29.99,29.89,29.84,10,10,10,22,11,31,0.00,5,Rain,242
2013-12-6,48,38,27,29,19,8,84,54,21,30.15,30.09,29.99,10,10,10,15,7,18,0.00,0,,246
2013-12-7,42,34,24,32,30,24,96,87,67,30.12,30.04,29.95,10,10,7,15,9,21,0.00,4,,141
2013-12-8,51,37,23,28,24,19,98,57,33,30.03,29.98,29.95,10,10,10,31,8,38,0.00,0,,257
2013-12-9,52,40,27,31,18,0,88,50,20,30.36,30.13,30.00,10,10,10,25,10,33,0.00,0,,296
2013-12-10,45,31,17,0,-1,-3,44,25,13,30.40,30.30,30.21,10,10,10,17,8,21,0.00,0,,13
2013-12-11,53,38,23,19,9,-1,49,31,19,30.45,30.35,30.24,10,10,10,8,4,,0.00,0,,40
2013-12-12,41,36,32,38,30,14,96,78,39,30.46,30.33,30.16,10,10,5,9,4,,0.05,7,Rain-Snow-Thunderstorm,23
2013-12-13,55,44,32,41,35,32,99,78,45,30.15,30.07,30.01,10,10,7,26,8,33,0.00,1,Thunderstorm,266
2013-12-14,51,40,28,32,26,21,93,61,32,30.40,30.28,30.09,10,10,10,12,6,,0.00,0,,338
2013-12-15,54,38,21,25,21,18,91,56,24,30.40,30.34,30.28,10,10,10,10,3,,0.00,0,,318
2013-12-16,61,46,31,25,22,19,68,43,20,30.37,30.31,30.27,10,10,10,13,7,,0.00,0,,333
2013-12-17,63,48,34,25,23,20,68,40,19,30.40,30.32,30.28,10,10,10,14,7,20,0.00,0,,12
2013-12-18,60,44,27,25,23,20,77,45,23,30.28,30.13,29.98,10,10,10,8,4,,0.00,0,,260
2013-12-19,67,49,31,25,18,9,65,34,11,29.97,29.86,29.76,10,10,10,20,4,26,0.00,0,,247
2013-12-20,56,46,35,44,31,18,95,59,31,29.82,29.74,29.66,10,10,4,16,7,22,0.06,5,Rain-Thunderstorm,229
2013-12-21,43,38,32,36,32,28,98,80,60,29.93,29.76,29.64,10,9,1,32,20,45,0.00,6,Snow,257
2013-12-22,50,40,31,31,26,17,90,63,28,30.29,30.14,29.94,10,10,10,21,12,25,0.00,1,,278
2013-12-23,52,38,25,26,21,15,83,56,24,30.46,30.39,30.29,10,10,10,9,4,,0.00,0,,13
2013-12-24,54,39,24,25,22,18,82,57,30,30.41,30.28,30.18,10,10,10,8,3,,0.00,0,,333
2013-12-25,50,38,25,26,23,21,82,55,32,30.41,30.34,30.23,10,10,10,13,5,,0.00,0,,105
2013-12-26,50,37,24,26,22,19,89,59,31,30.40,30.33,30.25,10,10,10,8,3,,0.00,0,,13
2013-12-27,52,38,24,20,19,17,78,51,25,30.38,30.31,30.25,10,10,10,9,4,,0.00,0,,309
2013-12-28,54,38,21,25,21,16,82,50,29,30.25,30.09,29.97,10,10,10,14,4,18,0.00,0,,236
2013-12-29,48,40,32,23,21,16,62,45,32,30.22,30.08,29.96,10,10,10,17,9,23,0.00,2,,146
2013-12-30,54,38,21,24,17,10,85,52,17,30.36,30.27,30.22,10,10,10,7,3,,0.00,0,,302
2013-12-31,55,39,23,20,17,14,73,46,23,30.36,30.27,30.17,10,10,10,7,3,,0.00,0,,263